Victoria, TX

12:48 AM CDT on May 25, 2017 (GMT -0500)
Victoria Regional

Weather History for KVCT - October, 2013

Change the Weather History Date:

Wednesday, October 2, 2013

  Actual Average Record
Temperature  
Mean Temperature 81 °F 76 °F  
Max Temperature 91 °F 87 °F 100 °F (1938)
Min Temperature 71 °F 65 °F 51 °F (2011)
Degree Days  
Heating Degree Days 0 0  
Month to date heating degree days 0 0  
Since 1 July heating degree days 0 1  
Cooling Degree Days 16 11  
Month to date cooling degree days 30 22  
Year to date cooling degree days 3060 2820  
Growing Degree Days 31 (Base 50)    
Moisture  
Dew Point 74 °F    
Average Humidity 80    
Maximum Humidity 100    
Minimum Humidity 59    
Precipitation  
Precipitation 0.00 in 0.14 in 1.92 in (1977)
Month to date precipitation 0.06 0.28  
Year to date precipitation 19.93 31.31  
Snow  
Snow 0.00 in - - ()
Month to date snowfall 0.0  
Since 1 July snowfall 0.0  
Since 1 September snowfall 0.0  
Snow Depth 0.00 in    
Sea Level Pressure  
Sea Level Pressure 29.91 in    
Wind  
Wind Speed 7 mph (ESE)    
Max Wind Speed 20 mph    
Max Gust Speed 24 mph    
Visibility 7 miles    
Events Fog    
T = Trace of Precipitation, MM = Missing Value Source: NWS Daily Summary

Daily Weather History Graph

Daily Weather History Graph

Search for Another Location

Airport or City:

Trip Planner

Search our weather history database for the weather conditions in past years. The results will help you decide how hot, cold, wet, or windy it might be!

Date:

Astronomy

Oct. 02, 2013 Rise Set
Actual Time 7:21 AM CDT 7:11 PM CDT
Civil Twilight 6:57 AM CDT 7:35 PM CDT
Nautical Twilight 6:30 AM CDT 8:02 PM CDT
Astronomical Twilight 6:02 AM CDT 8:30 PM CDT
Moon 5:04 AM CDT (10/2) 5:41 PM CDT (10/2)
Length of Visible Light 12h 37m
Length of Day
11h 50m
Waning Crescent, 6% of the Moon is Illuminated
Oct 2
Waning Crescent
Oct 4
New
Oct 11
First Quarter
Oct 18
Full
Oct 26
Last Quarter

Hourly Weather History & Observations

Time (CDT) Temp. Heat Index Dew Point Humidity Pressure Visibility Wind Dir Wind Speed Gust Speed Precip Events Conditions
12:51 AM 73.0 °F - 73.0 °F 100% 29.92 in 7.0 mi ESE 5.8 mph - N/A   Clear
1:51 AM 73.0 °F - 73.0 °F 100% 29.92 in 10.0 mi East 5.8 mph - N/A   Clear
2:51 AM 72.0 °F - 72.0 °F 100% 29.91 in 9.0 mi East 5.8 mph - N/A   Clear
3:51 AM 72.0 °F - 72.0 °F 100% 29.90 in 8.0 mi East 5.8 mph - N/A   Scattered Clouds
4:51 AM 73.0 °F - 73.0 °F 100% 29.90 in 8.0 mi East 3.5 mph - N/A   Scattered Clouds
5:33 AM 71.6 °F - 71.6 °F 100% 29.90 in 1.8 mi East 3.5 mph - N/A   Clear
5:43 AM 71.6 °F - 71.6 °F 100% 29.90 in 1.0 mi East 3.5 mph - N/A   Clear
5:51 AM 71.1 °F - 71.1 °F 100% 29.90 in 0.8 mi East 3.5 mph - N/A   Mist
6:10 AM 71.6 °F - 71.6 °F 100% 29.91 in 0.8 mi Calm Calm - N/A   Mist
6:29 AM 71.6 °F - 71.6 °F 100% 29.91 in 0.5 mi East 3.5 mph - N/A Fog Fog
6:51 AM 71.1 °F - 71.1 °F 100% 29.91 in 0.5 mi East 3.5 mph - N/A Fog Fog
6:56 AM 71.6 °F - 71.6 °F 100% 29.91 in 4.0 mi East 3.5 mph - N/A   Scattered Clouds
7:51 AM 71.1 °F - 71.1 °F 100% 29.92 in 4.0 mi East 4.6 mph - N/A   Scattered Clouds
7:56 AM 71.6 °F - 71.6 °F 100% 29.93 in 6.0 mi East 4.6 mph - N/A   Scattered Clouds
8:51 AM 75.9 °F - 75.9 °F 100% 29.94 in 6.0 mi Calm Calm - N/A   Scattered Clouds
8:53 AM 75.2 °F - 75.2 °F 100% 29.94 in 10.0 mi Calm Calm - N/A   Partly Cloudy
9:51 AM 82.0 °F 89.4 °F 75.9 °F 82% 29.95 in 10.0 mi SE 5.8 mph - N/A   Partly Cloudy
10:51 AM 82.9 °F 90.2 °F 75.0 °F 77% 29.95 in 10.0 mi South 8.1 mph - N/A   Partly Cloudy
11:51 AM 87.1 °F 96.3 °F 75.0 °F 67% 29.94 in 10.0 mi SSE 9.2 mph - N/A   Partly Cloudy
12:51 PM 87.1 °F 95.4 °F 73.9 °F 65% 29.93 in 10.0 mi South 5.8 mph - N/A   Mostly Cloudy
1:51 PM 90.0 °F 97.9 °F 73.0 °F 57% 29.90 in 10.0 mi Variable 5.8 mph - N/A   Mostly Cloudy
2:51 PM 90.0 °F 99.0 °F 73.9 °F 59% 29.87 in 10.0 mi South 11.5 mph - N/A   Partly Cloudy
3:51 PM 87.1 °F 97.3 °F 75.9 °F 69% 29.88 in 10.0 mi ESE 13.8 mph - N/A   Scattered Clouds
4:51 PM 86.0 °F 95.1 °F 75.0 °F 70% 29.87 in 10.0 mi SE 13.8 mph 21.9 mph N/A   Partly Cloudy
5:51 PM 84.0 °F 91.9 °F 75.0 °F 74% 29.86 in 10.0 mi SE 13.8 mph 19.6 mph N/A   Clear
6:51 PM 82.0 °F 88.6 °F 75.0 °F 79% 29.86 in 10.0 mi SE 8.1 mph - N/A   Clear
7:51 PM 79.0 °F - 75.0 °F 88% 29.88 in 10.0 mi SE 8.1 mph - N/A   Clear
8:51 PM 78.1 °F - 75.9 °F 93% 29.90 in 10.0 mi SE 8.1 mph - N/A   Clear
9:51 PM 77.0 °F - 75.0 °F 94% 29.92 in 10.0 mi SE 8.1 mph - N/A   Clear
10:51 PM 77.0 °F - 75.9 °F 96% 29.93 in 10.0 mi SE 8.1 mph - N/A   Clear
11:51 PM 75.9 °F - 75.0 °F 97% 29.93 in 10.0 mi SE 5.8 mph - N/A   Clear